Wetbulb
56.88 52.00 48.39 49.72 41.67 38.09 35.07 39.03 42.55 50.05 52.66 56.94 60.24 57.65 56.07 56.52 55.44 51.08 61.39 59.49 59.22 57.86 58.93 61.54 64.35 65.26 65.50 65.92 66.44 67.29 67.65 68.20 68.43 68.22 69.25 69.78 70.60 71.87 72.35 72.71 72.64 72.54 72.67 72.78 73.45 73.37 73.22 72.83 72.64
54.67 51.48 48.92 44.21 37.44 33.71 39.04 43.27 47.43 51.69 56.80 55.23 53.35 54.81 53.90 54.77 59.39 60.38 57.71 55.99 56.89 57.58 57.95 59.33 62.99 63.27 63.25 63.12 63.31 63.47 64.02 65.20 65.32 65.89 67.10 67.80 68.93 69.75 69.96 70.82 71.55 72.38 72.01 72.45 72.63 72.80 73.20 72.97 72.18
50.76 50.84 45.30 40.19 34.54 34.73 38.80 44.10 49.91 55.77 53.56 49.01 48.84 51.00 51.34 53.53 59.03 57.89 56.04 56.52 57.18 56.92 58.51 59.99 62.55 63.34 62.39 62.23 62.32 62.26 62.82 63.58 63.84 63.84 65.06 66.08 65.82 66.11 66.37 67.00 69.60 71.06 71.62 72.08 72.28 71.99 72.94 72.06 71.14
46.71 44.63 43.40 38.70 36.52 39.79 41.93 45.65 51.77 51.82 48.43 50.50 49.31 45.95 50.47 52.58 53.99 56.46 57.00 56.70 54.65 53.49 55.46 59.22 61.42 61.78 62.09 62.25 62.44 62.27 62.23 62.91 62.36 61.88 62.21 62.99 63.48 63.77 64.57 64.32 64.99 65.65 66.66 67.36 69.99 71.29 71.34 70.79 70.22
42.02 40.37 36.21 34.16 35.09 40.04 42.19 47.36 46.79 46.09 46.53 47.77 48.78 44.93 46.90 52.02 55.83 55.85 55.14 54.47 52.58 51.33 52.02 54.84 59.72 59.70 60.88 61.03 61.15 61.06 60.77 61.66 60.65 60.60 60.81 60.67 61.37 61.99 61.67 62.08 62.78 63.75 64.15 64.87 65.87 67.19 69.61 70.02 69.65
39.89 38.57 33.45 31.11 35.66 40.39 42.76 45.95 47.97 46.86 47.81 48.52 47.34 45.74 46.14 52.46 53.67 53.06 53.32 51.88 51.51 50.26 50.34 50.65 55.58 57.89 59.04 59.15 59.60 59.24 59.75 59.83 58.97 59.24 59.02 59.09 58.96 58.76 59.46 59.79 60.65 61.15 61.50 62.11 62.95 62.61 63.55 67.52 69.15
38.44 35.57 31.97 32.21 35.69 38.49 43.15 45.98 45.90 46.73 46.45 45.41 47.91 43.97 46.77 49.93 52.85 52.29 51.03 50.51 49.95 49.65 48.98 48.68 48.78 52.40 54.86 57.04 57.35 57.97 57.88 57.26 57.43 57.71 57.29 56.78 56.76 57.15 57.33 57.80 58.73 59.08 59.49 59.87 60.28 60.46 61.11 62.44 66.07
39.04 36.99 32.74 32.49 34.87 36.18 41.77 44.60 46.36 46.80 45.91 49.90 48.95 43.51 43.46 49.16 51.38 51.09 49.99 48.55 47.82 47.78 47.54 47.56 47.79 47.96 48.08 48.70 55.91 56.11 55.92 55.83 55.52 55.68 55.49 54.63 53.90 55.11 55.29 55.82 56.73 56.94 57.46 57.45 57.82 58.15 58.60 59.71 61.43
39.74 35.81 32.94 33.13 35.44 37.73 40.83 41.50 46.94 48.06 46.64 47.77 47.39 47.82 49.94 51.28 51.09 48.62 47.38 46.73 46.43 46.59 45.39 46.68 46.92 47.03 47.35 48.42 51.43 51.80 53.72 53.49 52.89 51.75 53.16 50.65 48.87 49.72 50.48 53.50 54.48 54.67 55.27 55.19 55.92 56.19 56.49 56.49 56.67
39.01 34.75 36.21 39.00 37.76 37.48 41.31 42.82 45.50 44.54 43.82 44.06 47.03 50.06 50.96 50.30 48.80 46.38 44.80 43.84 43.93 44.35 44.73 45.04 45.34 46.02 46.44 49.48 46.43 46.76 48.00 47.16 47.35 47.46 47.34 47.67 47.00 48.01 48.75 49.59 51.30 51.39 52.75 51.74 51.86 52.65 53.35 52.70 51.44
36.83 36.65 38.98 39.68 40.07 41.04 38.32 40.29 42.72 42.55 40.89 44.24 45.35 47.44 49.26 48.88 46.54 45.37 44.76 44.15 43.06 43.53 44.72 44.58 44.26 44.20 44.29 45.08 44.91 45.17 45.85 45.17 45.67 45.84 46.03 45.29 45.05 44.73 44.61 44.56 45.47 45.20 47.34 44.34 45.31 45.48 46.89 47.96 49.70
36.34 40.23 40.17 40.24 41.29 40.35 38.46 42.85 42.85 41.56 43.61 47.35 48.19 48.95 47.47 44.81 44.40 44.36 43.83 43.38 42.95 43.53 43.97 44.26 44.00 44.00 43.80 44.32 43.95 43.80 43.96 43.78 44.22 44.28 44.00 42.90 42.61 42.06 41.98 42.56 42.67 42.65 42.98 41.53 41.63 42.24 43.58 44.82 46.66
38.95 40.61 41.90 41.71 42.71 39.83 42.53 39.85 42.92 42.58 44.30 46.13 46.27 46.14 43.87 42.85 42.28 43.01 43.65 43.47 43.58 43.82 44.44 43.90 43.73 43.31 43.29 42.73 42.63 42.57 42.29 42.68 42.59 41.17 41.74 42.55 40.28 39.18 39.86 40.13 40.79 40.78 40.99 40.22 40.18 40.83 41.71 42.48 44.00
42.48 41.56 42.12 42.67 41.66 40.31 40.39 40.71 40.64 42.82 43.43 43.57 43.56 41.39 41.44 41.46 40.96 39.90 40.91 41.14 42.27 43.15 43.25 42.86 42.43 42.35 42.30 41.33 41.14 40.73 40.95 41.03 40.57 39.46 40.07 40.75 38.89 38.29 38.31 38.22 39.00 39.21 39.75 40.08 39.97 40.26 40.68 41.49 43.08
43.80 40.65 41.90 41.10 40.95 41.97 40.87 36.68 38.66 43.66 42.79 41.41 40.61 40.43 40.23 41.00 40.20 39.87 40.41 40.69 41.54 41.94 43.01 42.71 41.93 41.71 40.82 40.26 40.45 39.94 40.28 40.10 38.02 38.30 38.70 38.61 38.69 38.11 37.31 37.61 37.84 37.88 39.01 39.84 40.47 40.98 41.21 40.98 41.91
39.84 38.33 35.05 40.22 40.43 40.86 40.24 35.56 38.83 41.97 42.05 38.78 38.59 39.81 40.12 39.61 39.83 39.54 40.44 40.47 40.30 40.76 40.89 41.35 43.37 40.65 39.78 39.18 39.00 39.45 38.91 37.72 37.57 37.28 37.23 37.73 37.58 37.35 36.79 37.06 36.49 36.94 37.09 37.81 38.37 39.31 38.87 40.01 40.86
36.06 31.75 34.31 38.45 39.17 38.40 36.25 35.83 37.53 40.96 41.52 38.25 38.42 38.45 38.57 37.66 38.37 39.29 40.02 39.72 39.55 39.83 39.93 40.11 39.91 39.34 39.26 38.66 38.61 38.10 37.85 36.95 36.94 36.60 36.24 36.22 36.81 36.97 35.88 36.33 35.45 35.43 35.61 35.70 36.06 36.47 37.60 37.14 38.37
32.90 32.99 32.23 34.33 37.06 37.08 34.38 36.12 37.55 39.35 40.77 38.62 35.65 36.52 36.97 37.92 37.90 40.03 39.96 39.11 38.56 38.43 39.14 39.74 39.63 38.87 38.33 37.86 37.16 36.65 36.65 35.94 36.17 35.48 35.34 35.48 35.79 35.55 34.84 35.88 34.13 34.53 34.24 34.55 34.94 35.94 37.69 37.66 38.00
37.93 35.91 34.47 34.89 39.77 36.54 36.71 35.06 36.73 38.58 37.27 35.63 35.86 36.28 36.69 37.75 39.30 40.09 39.31 38.04 37.55 37.53 38.04 39.12 38.45 37.52 37.10 36.04 34.71 34.51 33.53 33.70 34.41 34.57 35.11 35.08 34.87 34.92 33.94 34.67 33.01 33.57 33.89 34.29 35.89 36.44 36.23 36.90 39.20
38.54 36.08 34.42 36.82 39.78 37.40 35.19 34.96 36.40 37.32 39.33 38.27 37.05 36.52 37.00 36.81 37.69 38.74 37.61 36.41 36.47 36.08 36.62 37.75 37.22 36.31 35.53 34.54 33.95 34.05 33.20 33.30 33.18 33.55 33.53 34.51 34.28 34.47 34.12 33.56 31.76 32.96 33.33 33.52 34.67 34.98 35.16 36.28 38.18
36.84 35.03 33.98 35.36 37.27 37.91 33.58 31.03 34.19 37.60 38.72 38.08 39.02 38.82 38.61 37.85 37.08 37.43 36.83 34.61 34.12 33.40 34.97 36.35 35.97 35.23 35.13 34.20 32.90 32.61 32.70 32.57 31.45 31.59 31.91 33.05 33.48 33.99 32.58 33.23 32.18 32.57 32.63 32.47 33.11 34.29 34.27 33.47 36.19
35.39 39.85 38.48 36.78 33.54 28.19 34.82 27.32 33.29 36.40 36.15 36.70 37.55 36.67 36.93 37.35 37.81 36.78 34.84 33.24 32.33 31.63 33.23 34.17 35.66 34.59 34.44 33.47 31.53 30.31 28.83 28.16 30.13 30.13 30.83 31.72 32.89 32.50 31.44 31.22 32.28 31.79 32.39 31.54 32.11 34.68 34.57 35.10 33.95
38.49 41.01 38.31 36.54 32.11 29.17 30.62 28.18 27.95 35.05 33.59 35.48 36.34 36.99 36.60 37.26 36.50 34.80 33.55 32.82 32.26 31.25 29.96 31.15 32.96 34.04 32.84 31.55 30.83 29.30 28.31 29.34 29.69 29.82 29.56 31.58 31.77 31.22 30.10 29.99 31.11 30.58 31.44 30.83 31.43 32.90 34.60 35.04 35.20
40.91 37.65 36.59 33.57 30.12 22.77 30.14 28.70 27.44 31.62 34.99 35.35 36.81 37.19 37.12 36.79 36.28 34.93 33.94 33.05 30.89 29.88 29.18 28.90 30.37 31.36 31.52 30.21 29.64 28.67 27.21 27.28 27.00 27.19 27.63 29.63 29.85 29.09 28.39 28.91 29.82 30.41 30.20 30.04 30.42 32.75 32.47 33.26 33.90
36.36 32.31 24.44 22.01 22.33 24.03 32.34 28.75 30.42 37.05 39.36 38.12 36.20 36.29 36.82 37.12 35.23 33.14 31.30 30.64 31.04 29.22 27.87 29.22 28.96 29.28 30.35 29.26 28.60 27.36 26.72 26.40 26.12 25.64 26.41 26.25 26.22 26.56 25.63 28.13 28.30 28.92 29.25 29.52 29.88 30.82 30.46 31.38 30.99
34.18 33.76 25.94 22.02 21.31 23.75 32.17 26.07 31.68 38.34 40.20 39.81 38.48 37.41 37.98 36.45 35.90 33.04 31.90 30.84 30.27 29.42 27.71 27.95 28.27 28.45 28.51 28.31 27.09 26.25 26.17 25.99 26.35 26.02 25.95 26.06 25.96 25.50 25.55 27.49 27.66 27.44 27.83 28.00 28.67 29.21 28.53 29.82 29.45
34.60 30.92 36.16 28.18 27.35 22.71 25.88 31.45 36.50 37.63 37.20 37.24 36.47 36.59 35.84 36.02 34.00 33.25 31.93 29.29 29.31 27.73 26.57 27.52 27.40 27.63 27.63 27.13 26.32 25.24 25.53 25.45 25.34 25.60 25.90 25.67 26.14 25.68 25.23 26.48 26.35 25.45 26.03 25.90 25.92 26.49 25.68 27.05 27.60
35.97 37.37 27.95 27.62 21.12 20.32 23.39 25.55 25.00 32.59 34.83 35.69 34.91 36.07 35.82 35.89 34.88 33.03 30.39 28.37 28.00 22.96 25.52 26.93 27.60 27.49 26.74 26.56 26.23 26.23 25.83 26.17 25.72 25.52 24.64 24.37 24.88 24.90 24.88 25.65 25.89 24.38 23.82 24.09 24.20 24.70 24.42 24.60 25.39
32.82 31.11 32.43 31.39 27.30 21.51 16.53 21.09 32.23 34.05 35.36 35.44 35.02 35.25 36.13 35.65 33.80 31.43 28.65 27.74 27.12 25.05 22.93 24.33 26.73 27.13 26.92 27.31 26.63 26.72 26.49 26.71 26.49 25.69 25.32 24.30 23.95 24.05 24.25 24.93 25.51 23.79 22.00 22.57 21.96 23.11 22.85 22.82 23.23
35.21 34.09 34.26 26.00 24.54 25.81 19.92 20.80 34.82 38.13 39.42 39.47 37.59 35.24 34.57 35.35 31.43 30.89 28.86 27.32 25.56 25.53 24.96 22.85 24.04 22.35 24.90 27.15 27.54 28.31 28.23 27.66 25.71 24.42 24.29 24.50 22.72 24.01 23.88 24.03 24.66 24.10 21.44 21.25 20.48 20.43 21.36 19.95 20.82
MSLP
1009.77 1009.54 1009.70 1009.97 1011.77 1012.44 1011.93 1010.95 1010.20 1010.19 1010.61 1010.85 1010.97 1011.47 1012.74 1013.57 1013.89 1015.52 1016.12 1016.39 1016.39 1016.43 1016.19 1016.08 1015.08 1014.60 1014.97 1014.88 1014.70 1014.79 1014.88 1014.91 1014.85 1014.62 1014.34 1014.38 1014.01 1013.75 1013.50 1013.45 1013.51 1013.32 1013.21 1013.12 1012.98 1012.88 1013.08 1012.88 1012.99
1009.61 1009.35 1009.90 1010.83 1012.17 1012.63 1011.79 1010.47 1010.08 1010.04 1010.70 1011.02 1011.54 1012.42 1013.03 1014.08 1014.50 1015.28 1015.97 1016.52 1016.18 1016.31 1016.46 1016.04 1015.35 1015.20 1015.33 1015.45 1015.38 1015.09 1015.17 1015.26 1015.02 1014.83 1014.73 1014.54 1014.20 1014.02 1013.85 1013.71 1013.64 1013.52 1013.29 1013.09 1012.84 1012.77 1012.69 1012.70 1012.82
1009.38 1009.41 1010.60 1011.68 1012.56 1012.24 1011.22 1010.36 1010.15 1010.59 1010.68 1011.10 1012.38 1013.06 1013.99 1014.88 1014.80 1015.66 1016.48 1016.54 1016.62 1016.90 1016.82 1016.32 1015.86 1015.67 1015.91 1015.89 1015.76 1015.75 1015.54 1015.31 1015.19 1015.14 1014.99 1014.79 1014.66 1014.50 1014.34 1014.15 1013.94 1013.58 1013.41 1013.35 1012.94 1012.61 1012.52 1012.42 1012.53
1009.61 1010.35 1011.77 1011.85 1012.06 1010.94 1010.36 1010.20 1010.18 1010.73 1011.42 1011.96 1012.97 1014.38 1015.17 1015.82 1015.61 1015.94 1016.66 1016.85 1017.32 1017.62 1017.31 1016.86 1016.33 1016.16 1016.24 1016.33 1016.63 1016.53 1015.74 1015.21 1015.59 1015.50 1015.43 1015.14 1015.02 1015.00 1014.82 1014.56 1014.49 1014.18 1014.05 1013.57 1013.11 1012.82 1012.59 1012.43 1012.43
1010.26 1011.36 1012.38 1012.26 1011.61 1010.52 1009.64 1009.71 1010.22 1010.84 1011.53 1012.32 1013.03 1014.95 1015.85 1016.40 1016.18 1016.68 1017.08 1017.48 1017.96 1018.20 1017.74 1017.37 1017.16 1016.86 1016.93 1017.21 1017.18 1016.71 1015.98 1015.96 1016.01 1015.71 1015.49 1015.58 1015.50 1015.34 1015.24 1015.08 1014.91 1014.72 1014.51 1014.08 1013.58 1013.14 1012.76 1012.48 1012.34
1011.07 1012.08 1012.86 1012.51 1011.20 1010.16 1009.60 1009.56 1010.09 1010.85 1011.54 1012.43 1013.35 1014.52 1016.38 1016.70 1016.68 1017.20 1017.53 1018.06 1018.46 1018.45 1018.42 1018.16 1018.19 1017.78 1017.30 1017.08 1016.98 1016.85 1016.82 1016.69 1016.41 1016.12 1015.86 1016.01 1015.97 1015.79 1015.72 1015.63 1015.35 1015.13 1014.73 1014.41 1013.95 1013.63 1013.13 1012.69 1012.31
1011.25 1012.28 1012.67 1012.02 1010.95 1010.27 1009.70 1009.43 1010.09 1010.96 1011.68 1012.39 1013.12 1014.82 1016.48 1016.99 1017.23 1017.69 1017.97 1018.21 1018.53 1018.67 1018.74 1018.70 1018.53 1018.29 1017.78 1017.16 1017.12 1017.24 1017.26 1017.17 1017.05 1016.80 1016.55 1016.44 1016.44 1016.39 1016.16 1015.93 1015.70 1015.47 1015.09 1014.70 1014.20 1013.86 1013.41 1012.89 1012.43
1011.05 1011.78 1012.38 1011.81 1011.00 1010.33 1009.71 1009.99 1010.54 1011.18 1011.98 1012.44 1012.94 1014.73 1016.40 1016.89 1017.66 1018.03 1018.48 1018.77 1018.92 1019.03 1019.01 1018.98 1018.92 1018.89 1018.59 1018.02 1017.91 1018.16 1017.96 1017.72 1017.58 1017.54 1017.41 1017.27 1017.15 1016.70 1016.36 1016.12 1015.92 1015.89 1015.49 1015.01 1014.48 1013.96 1013.64 1013.13 1012.70
1010.62 1011.89 1012.12 1011.20 1010.67 1010.20 1009.88 1010.24 1010.95 1011.67 1012.34 1013.06 1013.62 1014.14 1014.84 1016.97 1017.82 1018.33 1018.91 1019.23 1019.38 1019.57 1019.60 1019.63 1019.70 1019.70 1019.41 1018.96 1018.82 1019.09 1018.90 1018.84 1018.61 1018.40 1018.04 1017.77 1017.57 1017.18 1016.84 1016.46 1016.24 1016.09 1015.72 1015.40 1014.89 1014.38 1013.79 1013.38 1012.90
1010.93 1011.57 1011.13 1010.49 1010.28 1010.13 1010.00 1010.20 1010.91 1011.79 1012.75 1013.94 1014.52 1015.21 1016.13 1017.41 1018.01 1018.60 1019.07 1019.78 1020.14 1020.46 1020.53 1020.46 1020.41 1020.33 1020.08 1019.76 1019.66 1019.78 1019.57 1019.31 1019.00 1018.76 1018.54 1018.33 1017.91 1017.50 1017.26 1017.00 1016.64 1016.42 1016.00 1015.78 1015.30 1014.73 1014.12 1013.80 1013.43
1010.93 1010.98 1010.45 1009.93 1009.80 1009.70 1010.04 1010.55 1011.27 1012.07 1013.14 1013.70 1014.41 1015.76 1016.97 1017.89 1018.41 1018.88 1019.63 1020.06 1020.51 1020.88 1020.92 1020.88 1020.64 1020.49 1020.33 1020.01 1020.05 1019.99 1019.82 1019.63 1019.46 1019.26 1019.08 1018.86 1018.51 1018.22 1017.80 1017.39 1016.97 1016.68 1016.45 1016.14 1015.66 1015.06 1014.53 1014.06 1013.83
1010.91 1010.71 1010.42 1010.02 1009.77 1009.84 1010.08 1010.74 1011.68 1012.38 1012.80 1013.33 1014.83 1015.69 1016.96 1018.07 1018.77 1019.49 1020.27 1020.73 1021.05 1021.29 1021.34 1021.22 1020.95 1020.71 1020.49 1020.31 1020.28 1020.17 1020.02 1020.04 1020.00 1019.92 1019.68 1019.40 1019.02 1018.76 1018.47 1018.02 1017.53 1017.09 1016.82 1016.46 1016.03 1015.50 1014.89 1014.34 1013.82
1011.04 1010.90 1010.56 1010.24 1010.04 1010.14 1010.37 1011.15 1011.79 1012.80 1013.37 1014.01 1015.26 1016.38 1017.60 1018.51 1019.16 1019.80 1020.21 1020.68 1020.91 1021.12 1021.27 1021.19 1021.06 1021.09 1021.01 1020.95 1020.90 1020.78 1020.63 1020.49 1020.57 1020.48 1020.26 1019.91 1019.56 1019.28 1018.89 1018.46 1017.93 1017.48 1016.96 1016.55 1016.12 1015.66 1015.07 1014.49 1013.88
1011.29 1011.07 1010.76 1010.51 1010.34 1010.41 1010.93 1011.77 1012.36 1013.63 1014.18 1015.08 1015.99 1017.15 1018.11 1018.76 1019.38 1020.19 1020.72 1020.86 1020.84 1021.03 1021.18 1021.27 1021.28 1021.17 1021.04 1021.11 1021.05 1021.05 1020.98 1020.99 1020.87 1020.86 1020.65 1020.27 1020.10 1019.82 1019.44 1018.72 1018.31 1017.79 1017.19 1016.67 1016.13 1015.61 1015.09 1014.50 1013.94
1011.35 1011.44 1010.75 1010.26 1010.18 1010.31 1010.82 1012.29 1012.70 1013.38 1014.43 1015.62 1016.80 1017.87 1018.68 1019.32 1019.68 1020.03 1020.39 1020.68 1020.87 1021.20 1021.26 1021.37 1021.40 1021.47 1021.43 1021.49 1021.55 1021.58 1021.53 1021.40 1021.40 1021.08 1020.82 1020.58 1020.28 1020.03 1019.59 1018.96 1018.56 1018.08 1017.39 1016.71 1015.97 1015.37 1014.86 1014.41 1013.89
1011.97 1011.97 1011.70 1010.56 1010.34 1010.36 1010.65 1011.64 1012.34 1013.47 1014.38 1016.09 1017.22 1018.21 1018.91 1019.48 1019.67 1020.11 1020.40 1020.76 1021.18 1021.41 1021.56 1021.57 1021.50 1021.75 1021.81 1021.82 1021.83 1021.78 1021.78 1021.62 1021.51 1021.30 1020.91 1020.57 1020.25 1020.08 1019.73 1019.38 1019.04 1018.44 1017.75 1017.09 1016.43 1015.75 1015.09 1014.65 1013.82
1013.00 1012.72 1012.31 1011.42 1010.53 1010.86 1011.37 1011.88 1012.71 1013.54 1014.67 1016.14 1017.31 1018.10 1018.91 1019.52 1020.06 1020.45 1020.70 1020.97 1021.22 1021.34 1021.66 1021.87 1021.95 1022.01 1022.05 1021.98 1021.99 1021.98 1021.94 1021.74 1021.60 1021.20 1021.10 1020.89 1020.50 1020.32 1020.14 1019.62 1019.43 1018.91 1018.18 1017.61 1017.00 1016.28 1015.53 1014.91 1014.12
1013.08 1012.94 1012.50 1011.93 1011.07 1010.93 1011.49 1012.07 1012.95 1014.11 1014.76 1015.97 1017.30 1018.16 1018.89 1019.54 1020.08 1020.43 1020.71 1021.16 1021.36 1021.50 1021.80 1022.19 1022.30 1022.24 1022.05 1021.96 1022.01 1021.90 1021.90 1021.95 1021.85 1021.73 1021.50 1021.12 1020.98 1020.65 1020.46 1020.05 1019.73 1019.16 1018.58 1017.93 1017.22 1016.45 1015.77 1015.03 1014.30
1012.86 1012.83 1012.55 1011.85 1011.30 1011.46 1011.51 1012.02 1012.54 1013.54 1015.05 1016.34 1017.50 1018.15 1018.77 1019.37 1019.91 1020.42 1020.93 1021.40 1021.51 1021.61 1021.89 1022.28 1022.51 1022.66 1022.33 1022.13 1022.32 1022.42 1022.56 1022.41 1022.28 1022.12 1021.89 1021.55 1021.23 1020.90 1020.73 1020.34 1020.02 1019.55 1018.86 1018.19 1017.54 1016.59 1015.92 1014.95 1014.17
1012.91 1012.72 1012.27 1011.74 1011.36 1011.56 1011.68 1012.00 1012.19 1013.26 1013.65 1014.71 1016.20 1017.69 1018.45 1019.32 1020.18 1020.88 1021.40 1021.77 1021.73 1022.02 1022.24 1022.57 1022.76 1022.99 1022.90 1022.74 1022.83 1022.77 1022.59 1022.52 1022.56 1022.43 1022.30 1021.95 1021.63 1021.35 1021.13 1020.63 1020.40 1019.72 1019.17 1018.55 1017.69 1017.02 1016.20 1015.34 1014.63
1012.38 1012.40 1012.11 1011.86 1011.48 1011.42 1011.84 1011.95 1012.21 1012.64 1013.61 1014.91 1016.26 1017.17 1018.20 1018.78 1019.82 1020.80 1021.60 1022.12 1022.07 1022.26 1022.53 1022.97 1023.28 1023.26 1023.14 1023.09 1023.08 1022.88 1022.71 1022.75 1022.82 1022.84 1022.75 1022.24 1021.99 1021.85 1021.64 1021.09 1020.75 1020.01 1019.60 1018.52 1017.99 1017.53 1016.88 1015.83 1015.05
1011.76 1011.63 1011.61 1011.91 1012.22 1012.38 1012.27 1012.05 1012.45 1012.86 1013.87 1014.95 1016.09 1017.18 1018.14 1019.11 1020.00 1020.80 1021.73 1022.30 1022.26 1022.64 1022.81 1022.93 1023.39 1023.49 1023.32 1023.36 1023.57 1023.57 1023.68 1023.64 1023.53 1023.29 1022.94 1022.71 1022.46 1022.32 1022.10 1021.68 1020.99 1020.51 1019.60 1018.79 1018.49 1017.99 1017.16 1016.36 1015.34
1010.69 1011.08 1011.51 1011.93 1012.49 1012.78 1012.95 1013.42 1012.69 1013.44 1014.29 1014.99 1016.02 1017.08 1018.05 1018.90 1019.84 1021.03 1021.85 1022.31 1022.65 1022.94 1023.32 1023.16 1023.34 1023.62 1023.86 1024.05 1024.05 1024.07 1024.11 1024.16 1023.90 1023.64 1023.29 1023.24 1022.98 1022.71 1022.41 1022.09 1021.32 1020.81 1019.47 1019.38 1018.93 1018.29 1017.14 1016.54 1015.85
1010.79 1011.11 1011.93 1012.91 1013.53 1013.54 1013.33 1013.56 1012.65 1013.38 1013.74 1014.83 1016.08 1017.28 1018.41 1019.32 1020.13 1021.06 1021.75 1022.46 1022.93 1023.32 1023.57 1023.62 1023.53 1024.22 1024.56 1024.60 1024.38 1024.42 1024.50 1024.60 1024.49 1024.16 1023.95 1023.58 1023.56 1023.10 1022.94 1022.45 1021.74 1020.93 1019.88 1019.61 1019.25 1018.62 1017.74 1017.02 1016.41
1011.11 1012.03 1013.14 1014.03 1014.70 1013.75 1013.36 1013.84 1013.05 1013.53 1013.40 1013.99 1015.55 1016.92 1018.13 1019.14 1020.35 1021.21 1021.75 1022.48 1023.17 1023.78 1023.79 1023.67 1024.25 1024.70 1024.80 1024.74 1024.69 1024.85 1025.04 1025.11 1024.96 1024.96 1024.52 1024.39 1024.20 1023.76 1023.46 1022.81 1022.15 1021.05 1020.50 1020.07 1019.74 1019.06 1018.12 1017.42 1017.02
1010.57 1011.60 1012.91 1013.53 1014.50 1014.19 1013.88 1013.80 1013.49 1013.89 1013.83 1014.63 1015.67 1016.65 1017.80 1019.13 1020.25 1020.96 1021.78 1022.47 1023.17 1023.70 1023.67 1024.23 1024.77 1025.05 1025.11 1024.99 1025.12 1025.14 1025.24 1025.33 1025.35 1025.24 1025.06 1025.02 1024.86 1024.39 1023.96 1023.24 1022.47 1021.49 1020.97 1020.78 1020.26 1019.51 1018.83 1018.11 1017.59
1010.09 1010.84 1011.48 1013.07 1014.67 1015.20 1014.47 1014.36 1014.30 1014.35 1014.91 1015.39 1016.17 1017.34 1018.16 1018.66 1019.83 1020.99 1021.89 1022.56 1023.48 1023.71 1024.21 1024.64 1025.05 1025.17 1025.33 1025.17 1025.33 1025.64 1025.62 1025.50 1025.41 1025.36 1025.41 1025.40 1025.18 1024.54 1024.14 1023.67 1022.83 1021.93 1021.48 1021.49 1020.92 1020.19 1019.52 1018.88 1018.30
1009.04 1010.11 1011.63 1013.16 1014.70 1015.58 1015.40 1015.03 1014.57 1014.92 1015.29 1016.04 1016.74 1017.35 1018.17 1018.94 1019.78 1021.02 1022.14 1022.95 1023.75 1024.26 1024.57 1024.89 1024.99 1025.15 1025.31 1025.30 1025.42 1025.83 1025.93 1025.88 1025.67 1025.59 1025.77 1025.74 1025.39 1024.90 1024.41 1023.99 1023.10 1022.43 1022.14 1021.94 1021.50 1020.90 1020.44 1019.57 1018.86
1009.51 1010.15 1011.20 1012.35 1013.83 1015.20 1015.89 1014.84 1013.84 1013.81 1014.31 1015.30 1016.20 1016.97 1017.76 1018.50 1019.51 1020.92 1022.20 1023.10 1023.86 1024.38 1024.67 1024.89 1025.26 1025.26 1025.35 1025.43 1025.85 1026.07 1026.25 1026.20 1025.97 1025.99 1026.04 1026.06 1025.72 1025.25 1024.80 1024.40 1023.74 1023.06 1022.85 1022.64 1022.23 1021.63 1021.15 1020.41 1019.53
1009.26 1009.78 1010.67 1012.24 1013.80 1015.17 1015.80 1014.26 1013.40 1013.19 1013.70 1014.66 1015.80 1016.59 1017.56 1018.54 1019.61 1020.88 1022.06 1023.01 1023.84 1024.33 1024.77 1025.05 1025.33 1025.57 1025.45 1025.52 1025.81 1025.97 1026.38 1026.66 1026.55 1026.42 1026.35 1026.22 1026.01 1025.61 1025.24 1024.73 1024.13 1023.62 1023.44 1023.33 1022.77 1022.43 1021.75 1021.18 1020.50
Wind_Speed
6 6 2 5 5 6 3 5 2 2 3 0 4 7 8 6 2 3 6 6 7 5 5 5 15 18 16 16 16 16 16 15 16 16 16 15 14 14 13 10 7 4 4 4 4 4 4 3 3
3 1 5 3 6 4 5 5 7 5 8 13 10 4 5 5 6 6 3 6 11 8 5 6 17 18 17 16 15 16 16 16 17 18 17 17 17 17 16 15 12 10 8 6 6 6 6 5 6
1 4 5 5 4 3 5 1 5 12 11 4 6 8 4 4 7 5 8 9 10 8 7 10 16 18 17 16 16 15 15 16 18 18 18 19 18 19 20 19 16 14 14 12 10 8 6 6 6
2 5 5 5 3 6 4 6 6 10 4 7 8 8 5 5 2 8 11 9 10 7 8 13 17 17 18 17 15 14 17 19 18 18 19 19 19 19 18 19 20 20 17 17 15 13 10 7 7
5 4 4 1 4 4 3 8 9 7 5 3 5 6 4 3 13 13 11 10 10 7 9 10 18 18 16 17 16 18 20 19 18 19 20 19 19 19 20 19 19 19 19 20 19 17 14 11 8
5 4 5 2 5 4 4 2 6 2 3 8 8 7 2 5 11 9 11 11 7 9 8 9 14 16 17 18 18 20 19 19 20 20 20 19 18 18 18 18 19 20 20 19 19 20 20 17 12
6 5 3 3 3 1 3 2 4 4 5 4 9 6 5 3 10 11 11 10 9 8 9 8 8 12 18 19 20 19 19 19 19 19 18 18 18 18 19 19 20 20 19 20 19 20 20 19 17
6 5 3 3 3 1 3 3 4 6 4 4 8 8 8 8 11 11 10 9 9 9 10 10 9 9 8 9 20 18 18 18 18 18 18 16 16 18 19 18 19 20 20 20 20 19 20 19 18
3 6 1 2 1 1 0 3 3 2 6 4 6 5 14 17 14 12 8 7 7 10 9 8 9 8 8 8 10 13 16 17 15 13 17 11 7 8 12 16 19 20 20 20 21 21 20 20 17
5 4 6 4 1 2 3 3 7 5 3 6 12 17 21 17 12 11 9 7 6 5 6 6 6 6 6 6 7 6 7 5 6 8 9 7 7 9 12 14 19 19 19 19 21 20 19 16 8
1 4 4 2 2 2 2 3 2 8 1 5 20 19 18 14 11 11 8 7 7 4 4 5 5 5 5 5 4 3 3 4 5 10 8 7 7 7 7 6 7 8 15 7 10 10 7 10 8
1 4 3 4 4 3 1 4 4 1 1 13 14 19 15 15 12 11 9 6 6 6 5 5 6 6 6 4 3 4 3 4 5 7 9 6 5 6 7 6 7 7 7 10 8 6 9 9 9
2 3 4 3 7 3 2 1 5 3 6 17 17 15 15 12 10 7 8 7 7 8 5 5 6 5 5 6 4 4 5 5 5 7 8 7 7 7 7 7 7 7 8 8 8 8 8 9 10
2 3 6 5 4 3 4 2 3 1 7 15 17 13 12 15 12 7 7 7 7 7 6 5 6 6 6 5 5 4 4 4 5 5 7 9 6 6 7 7 7 7 8 8 8 8 8 7 8
4 6 8 3 2 8 9 2 6 9 9 15 13 12 10 9 9 10 8 8 8 5 6 6 6 5 6 5 5 4 4 4 4 4 7 8 8 8 8 6 8 9 9 11 8 8 7 8 7
4 4 4 4 2 4 7 9 6 11 17 13 12 12 12 7 9 9 8 8 7 7 7 6 6 6 7 6 4 3 4 4 5 5 6 9 10 10 8 7 8 10 9 9 9 9 9 9 9
5 3 3 8 4 1 1 7 2 10 14 14 12 11 9 8 6 6 7 8 7 8 7 7 6 6 6 5 4 5 6 6 5 6 7 10 10 11 9 6 8 10 9 8 9 9 9 10 10
5 3 4 5 4 3 3 9 4 10 14 16 10 9 9 11 8 8 8 7 7 7 7 7 5 5 5 4 3 3 5 5 5 5 6 9 8 11 9 6 10 9 8 9 9 12 11 10 10
2 4 7 4 6 1 7 7 9 13 6 10 11 11 9 9 7 7 6 6 7 7 8 7 6 5 5 4 3 3 3 3 5 5 8 8 8 10 9 8 10 10 10 12 11 10 12 10 10
8 9 8 5 5 6 7 9 6 12 16 18 19 13 13 8 8 8 6 5 6 7 7 7 7 6 5 3 2 1 1 3 3 3 5 7 9 9 10 10 10 11 9 12 11 12 9 9 9
6 9 5 8 4 3 1 5 6 6 3 10 12 10 11 16 14 9 7 6 6 7 7 7 6 6 5 5 3 3 3 2 3 4 5 6 10 9 10 11 10 10 10 9 12 11 12 9 9
13 7 8 6 5 5 1 9 5 2 4 8 13 12 11 11 9 8 7 5 7 6 6 7 6 5 7 6 5 6 3 3 3 3 4 5 8 9 11 11 10 10 8 11 11 11 9 9 9
14 10 9 6 5 3 2 3 1 3 1 7 10 11 10 10 11 10 7 6 6 6 6 6 7 8 7 7 6 4 4 3 3 4 6 7 7 8 10 11 11 10 8 10 12 13 10 8 9
1 4 6 5 3 4 6 7 4 6 4 4 7 10 11 11 10 9 7 7 6 5 5 6 8 7 5 5 6 7 7 5 5 5 5 6 6 7 9 12 10 10 11 11 10 12 12 10 9
3 4 2 3 0 8 6 4 7 6 6 12 16 15 14 13 10 9 9 7 6 6 6 7 7 6 5 6 6 7 6 6 6 5 5 6 6 7 9 12 10 9 12 12 11 10 11 11 10
10 10 7 6 5 4 3 5 4 3 2 9 8 10 13 11 10 11 8 7 7 6 7 7 6 5 5 5 6 6 6 3 3 5 4 5 6 5 8 10 9 11 12 12 11 8 10 11 10
7 8 7 5 3 3 3 2 2 5 5 9 13 11 12 12 10 10 9 6 6 6 6 7 6 5 5 6 6 5 5 5 5 6 5 4 5 7 7 9 9 11 11 11 11 8 11 11 11
8 7 4 2 4 5 4 4 6 6 8 7 8 12 9 9 10 8 7 7 4 4 5 6 5 6 5 5 5 5 5 4 5 5 6 7 6 7 7 9 9 11 11 11 11 9 11 11 9
2 3 3 5 4 5 2 7 6 10 10 15 13 10 14 14 9 8 7 6 6 5 4 5 5 6 5 5 5 5 4 4 4 4 4 5 6 7 8 7 8 11 11 11 10 11 12 12 12
2 5 5 5 4 2 5 10 5 8 13 12 12 11 7 5 7 9 9 8 7 6 5 5 4 4 3 6 5 5 5 4 5 5 5 5 7 8 7 7 8 8 10 10 11 11 11 12 13
Wind_Direction
303 300 138 50 53 62 292 272 225 130 99 123 73 124 116 26 57 162 111 93 100 61 13 6 49 57 53 51 52 49 44 40 36 28 24 19 19 16 14 8 349 327 290 269 241 217 237 236 242
311 106 44 82 86 59 290 258 167 164 124 110 85 83 66 79 70 96 78 56 64 56 14 30 49 52 50 48 51 53 50 44 40 32 29 22 20 19 15 7 1 345 315 279 258 244 233 233 243
201 50 81 90 100 168 203 215 83 129 146 63 89 37 56 53 85 80 94 79 65 38 23 36 46 46 48 45 45 50 56 52 47 36 32 31 23 19 17 13 7 3 352 339 315 284 253 238 235
65 14 34 85 213 245 198 151 150 145 57 70 111 79 74 314 355 114 118 87 65 24 22 38 45 45 42 39 37 46 51 51 44 38 32 29 22 18 18 17 13 12 4 357 346 335 314 263 246
37 57 55 41 279 278 283 149 156 169 121 115 152 135 72 32 97 100 95 81 72 38 29 29 43 50 49 44 39 36 37 44 38 36 33 28 23 20 16 13 10 11 8 8 4 352 331 306 275
44 97 52 327 272 308 3 119 117 88 94 139 96 99 69 139 104 100 93 83 69 59 39 37 33 44 47 43 39 36 36 38 31 31 30 30 21 18 15 12 9 7 4 4 3 3 1 342 304
111 85 192 245 268 353 176 130 74 118 122 52 133 88 131 170 118 106 93 82 66 52 47 31 27 29 35 36 35 37 37 30 30 29 30 25 21 18 15 12 8 5 3 2 1 357 357 352 341
107 92 96 262 316 298 340 66 99 60 58 103 137 162 176 159 128 106 87 75 65 49 45 32 24 18 15 25 38 35 32 33 30 27 27 26 20 17 14 11 9 2 1 359 358 357 354 351 352
113 61 353 261 205 198 312 136 41 48 86 43 339 119 125 133 123 104 88 58 46 44 34 29 25 17 9 29 32 28 29 31 32 26 24 18 14 7 12 7 5 2 1 360 359 355 355 352 350
86 106 218 197 225 261 305 121 148 112 95 39 75 89 114 133 127 116 108 90 72 60 45 33 35 26 20 33 26 15 19 16 19 19 16 13 17 15 11 3 0 360 3 356 354 350 352 352 343
229 157 228 228 228 307 42 58 50 118 161 191 146 137 139 138 128 119 108 109 115 113 77 47 48 47 42 36 35 15 16 11 16 24 21 11 13 5 5 358 357 354 357 354 350 345 343 341 336
101 27 153 313 330 348 89 113 75 65 249 128 140 140 136 131 126 127 124 121 119 100 77 44 40 41 35 40 38 31 26 31 36 27 18 13 15 8 2 357 351 351 350 344 342 333 325 324 321
63 322 337 315 300 265 42 52 164 63 94 111 123 128 130 124 121 122 128 130 130 111 102 62 55 48 38 44 27 26 30 38 40 29 14 22 14 4 356 350 347 345 342 338 334 329 327 322 315
298 270 271 264 223 241 160 214 46 125 109 115 124 125 129 133 140 125 131 129 115 121 115 85 68 61 56 53 49 35 39 37 44 36 23 22 11 2 355 349 346 341 337 325 321 319 319 315 316
295 320 328 276 226 224 129 112 225 160 133 132 131 129 130 137 138 144 149 131 130 119 128 105 96 74 72 59 47 46 45 57 44 40 29 19 16 4 353 349 350 344 335 329 322 319 317 317 313
17 48 344 285 36 340 147 247 179 159 146 148 136 141 146 146 143 139 137 124 124 119 103 83 77 68 68 66 58 61 52 47 41 36 26 21 15 5 355 351 349 341 336 334 333 330 330 321 315
3 229 221 310 359 59 110 272 152 166 158 155 156 154 148 128 123 137 133 131 129 125 110 92 78 77 76 68 59 57 57 46 31 32 23 12 9 4 353 348 343 339 336 334 331 329 323 321 316
204 220 259 247 270 62 216 263 156 189 178 165 155 157 150 149 158 153 132 121 117 107 97 95 82 66 61 66 70 63 55 42 32 27 24 14 9 4 354 344 346 342 336 333 328 327 326 320 312
268 229 236 243 261 250 255 250 226 189 156 155 164 170 163 154 152 130 119 122 115 91 89 86 79 34 34 28 10 13 48 22 27 19 11 7 5 3 355 351 347 342 340 335 328 329 324 323 318
247 257 258 268 226 169 257 256 254 174 203 180 172 174 166 146 141 135 123 105 89 93 93 86 74 56 40 35 17 54 34 57 45 14 9 5 2 2 357 351 347 342 337 336 340 335 322 322 336
236 224 221 231 294 223 265 281 238 223 138 150 182 171 165 159 154 141 125 123 104 84 94 96 85 78 63 50 28 21 28 20 23 13 358 12 0 3 0 348 348 344 339 342 340 328 333 319 321
261 220 216 218 144 221 77 278 268 183 135 175 171 168 163 156 138 130 140 129 106 95 94 92 91 80 59 40 42 46 43 23 0 3 351 2 4 2 359 347 346 340 344 355 339 325 321 314 316
257 217 214 180 178 107 236 260 282 83 233 194 184 168 157 151 142 147 144 130 107 104 104 96 85 71 56 47 50 58 46 20 2 359 4 3 1 1 359 345 346 334 4 349 341 325 337 337 325
352 81 44 41 85 269 192 178 228 190 213 146 155 156 143 142 140 138 133 129 112 107 106 94 81 73 70 60 50 50 45 21 14 6 7 5 354 357 355 343 348 340 5 353 344 334 345 346 337
149 88 296 309 325 243 202 209 258 303 290 181 161 157 159 159 151 155 164 151 143 132 121 94 87 84 76 69 58 49 45 35 28 7 5 359 351 354 352 348 348 356 3 357 343 348 349 355 345
196 171 184 226 207 249 346 239 253 342 18 123 140 148 146 150 177 177 169 166 137 139 97 93 103 103 91 80 64 56 51 49 34 21 11 358 352 339 350 350 353 0 11 359 348 357 357 354 351
189 194 188 127 22 54 226 282 347 102 77 130 140 148 181 180 174 179 173 141 144 119 127 135 132 115 104 97 88 61 51 53 43 24 7 355 344 357 2 353 354 10 13 2 353 3 4 0 354
185 156 105 347 154 237 274 253 231 196 175 165 168 184 195 196 186 165 145 139 133 139 135 132 129 126 114 100 96 82 67 50 43 36 24 5 352 352 1 11 5 16 17 6 2 2 359 5 8
128 150 78 115 132 165 210 262 222 203 173 182 199 197 200 206 183 151 143 145 145 139 142 136 140 130 116 104 106 95 67 47 45 40 24 7 359 359 6 8 3 25 19 13 10 7 5 2 5
195 178 147 137 182 158 160 263 284 191 185 182 202 207 222 196 155 151 152 151 154 161 160 170 160 142 154 136 134 117 95 56 48 44 35 17 15 11 7 5 14 18 25 14 12 8 6 5 4